| time (UTC) | temp F | wind direction | speed MPH | gust MPH | rain 1hr in | rain 24hr in | rain mn in | humidity % | barometer mb |
| 20260904215556 | 75 | 223 | 7.0 | 14.0 | 0.00 | 0.00 | 0.00 | 70 | 1011.9 |
| 20260904215059 | 75 | 202 | 4.0 | 14.0 | 0.00 | 0.00 | 0.00 | 72 | 1011.9 |
| 20260904214602 | 75 | 260 | 6.0 | 14.0 | 0.00 | 0.00 | 0.00 | 70 | 1011.9 |
| 20260904214056 | 75 | 284 | 4.0 | 12.0 | 0.00 | 0.00 | 0.00 | 72 | 1012.0 |
| 20260904213557 | 75 | 229 | 7.0 | 14.0 | 0.00 | 0.00 | 0.00 | 70 | 1012.0 |
| 20260904213105 | 75 | 252 | 4.0 | 14.0 | 0.00 | 0.00 | 0.00 | 70 | 1012.1 |
| 20260904212556 | 75 | 195 | 4.0 | 14.0 | 0.00 | 0.00 | 0.00 | 70 | 1012.0 |
| 20260904212055 | 76 | 200 | 6.0 | 12.0 | 0.00 | 0.00 | 0.00 | 69 | 1012.1 |
| 20260904211609 | 76 | 142 | 4.0 | 11.0 | 0.00 | 0.00 | 0.00 | 69 | 1012.1 |
| 20260904211055 | 76 | 198 | 4.0 | 11.0 | 0.00 | 0.00 | 0.00 | 69 | 1012.2 |
| 20260904210555 | 75 | 257 | 5.0 | 11.0 | 0.00 | 0.00 | 0.00 | 68 | 1012.0 |
| 20260904210114 | 75 | 192 | 4.0 | 10.0 | 0.00 | 0.00 | 0.00 | 70 | 1012.1 |
| 20260904205556 | 75 | 186 | 4.0 | 13.0 | 0.00 | 0.00 | 0.00 | 69 | 1012.1 |
| 20260904205056 | 75 | 188 | 4.0 | 13.0 | 0.00 | 0.00 | 0.00 | 68 | 1012.2 |
| 20260904204608 | 75 | 292 | 4.0 | 10.0 | 0.00 | 0.00 | 0.00 | 69 | 1012.1 |
| 20260904204056 | 75 | 205 | 4.0 | 12.0 | 0.00 | 0.00 | 0.00 | 68 | 1012.0 |
| 20260904203557 | 75 | 153 | 6.0 | 12.0 | 0.00 | 0.00 | 0.00 | 68 | 1012.1 |
| 20260904203102 | 75 | 202 | 4.0 | 12.0 | 0.00 | 0.00 | 0.00 | 68 | 1011.9 |
| 20260904202556 | 75 | 205 | 6.0 | 11.0 | 0.00 | 0.00 | 0.00 | 67 | 1012.1 |
| 20260904202055 | 75 | 208 | 5.0 | 11.0 | 0.00 | 0.00 | 0.00 | 67 | 1012.3 |
| 20260904201622 | 76 | 175 | 2.0 | 14.0 | 0.00 | 0.00 | 0.00 | 67 | 1012.4 |
| 20260904201055 | 75 | 189 | 4.0 | 14.0 | 0.00 | 0.00 | 0.00 | 67 | 1012.4 |
| 20260904200557 | 75 | 181 | 5.0 | 9.0 | 0.00 | 0.00 | 0.00 | 66 | 1012.3 |
| 20260904200129 | 75 | 171 | 3.0 | 13.0 | 0.00 | 0.00 | 0.00 | 66 | 1012.4 |
| 20260904195555 | 75 | 173 | 4.0 | 13.0 | 0.00 | 0.00 | 0.00 | 66 | 1012.4 |
| 20260904195059 | 75 | 153 | 3.0 | 9.0 | 0.00 | 0.00 | 0.00 | 66 | 1012.4 |
| 20260904194636 | 75 | 176 | 4.0 | 9.0 | 0.00 | 0.00 | 0.00 | 67 | 1012.5 |
| 20260904194056 | 75 | 194 | 4.0 | 11.0 | 0.00 | 0.00 | 0.00 | 66 | 1012.6 |
| 20260904193556 | 75 | 298 | 5.0 | 11.0 | 0.00 | 0.00 | 0.00 | 67 | 1012.6 |
| 20260904193119 | 75 | 166 | 4.0 | 11.0 | 0.00 | 0.00 | 0.00 | 66 | 1012.8 |
| 20260904192556 | 76 | 162 | 4.0 | 10.0 | 0.00 | 0.00 | 0.00 | 66 | 1012.8 |
| 20260904192059 | 76 | 218 | 1.0 | 8.0 | 0.00 | 0.00 | 0.00 | 65 | 1012.7 |
| 20260904191624 | 76 | 263 | 2.0 | 8.0 | 0.00 | 0.00 | 0.00 | 64 | 1012.9 |
| 20260904191058 | 76 | 138 | 2.0 | 5.0 | 0.00 | 0.00 | 0.00 | 65 | 1012.9 |
| 20260904190556 | 75 | 144 | 1.0 | 8.0 | 0.00 | 0.00 | 0.00 | 66 | 1012.9 |
| 20260904190108 | 75 | 233 | 2.0 | 8.0 | 0.00 | 0.00 | 0.00 | 65 | 1013.1 |
| 20260904185557 | 76 | 0 | 2.0 | 6.0 | 0.00 | 0.00 | 0.00 | 65 | 1013.1 |
| 20260904185056 | 76 | 125 | 1.0 | 6.0 | 0.00 | 0.00 | 0.00 | 65 | 1013.0 |
| 20260904184614 | 75 | 153 | 2.0 | 6.0 | 0.00 | 0.00 | 0.00 | 67 | 1013.1 |
| 20260904184058 | 75 | 0 | 2.0 | 6.0 | 0.00 | 0.00 | 0.00 | 68 | 1013.2 |
| 20260904183556 | 74 | 189 | 0.0 | 9.0 | 0.00 | 0.00 | 0.00 | 68 | 1013.2 |
| 20260904183101 | 74 | 0 | 3.0 | 9.0 | 0.00 | 0.00 | 0.00 | 68 | 1013.1 |
| 20260904182555 | 74 | 163 | 4.0 | 9.0 | 0.00 | 0.00 | 0.00 | 68 | 1013.2 |
| 20260904182055 | 74 | 188 | 1.0 | 9.0 | 0.00 | 0.00 | 0.00 | 70 | 1013.2 |
| 20260904181607 | 73 | 170 | 3.0 | 9.0 | 0.00 | 0.00 | 0.00 | 71 | 1013.3 |
| 20260904181056 | 73 | 210 | 2.0 | 6.0 | 0.00 | 0.00 | 0.00 | 72 | 1013.3 |
| 20260904180556 | 73 | 273 | 2.0 | 8.0 | 0.00 | 0.00 | 0.00 | 70 | 1013.4 |
| 20260904180059 | 73 | 256 | 3.0 | 12.0 | 0.00 | 0.00 | 0.00 | 71 | 1013.3 |
| 20260904175555 | 73 | 198 | 2.0 | 12.0 | 0.00 | 0.00 | 0.00 | 71 | 1013.4 |
| 20260904175055 | 72 | 186 | 3.0 | 6.0 | 0.00 | 0.00 | 0.00 | 72 | 1013.4 |
| 20260904174608 | 72 | 292 | 1.0 | 6.0 | 0.00 | 0.00 | 0.00 | 72 | 1013.4 |
| 20260904174056 | 72 | 221 | 2.0 | 6.0 | 0.00 | 0.00 | 0.00 | 73 | 1013.4 |
| 20260904173556 | 72 | 0 | 2.0 | 6.0 | 0.00 | 0.00 | 0.00 | 71 | 1013.3 |
| 20260904173112 | 72 | 190 | 1.0 | 6.0 | 0.00 | 0.00 | 0.00 | 71 | 1013.2 |
| 20260904172556 | 72 | 134 | 2.0 | 6.0 | 0.00 | 0.00 | 0.00 | 70 | 1013.2 |
| 20260904172056 | 72 | 103 | 1.0 | 6.0 | 0.00 | 0.00 | 0.00 | 72 | 1013.2 |
| 20260904171558 | 72 | 0 | 2.0 | 6.0 | 0.00 | 0.00 | 0.00 | 72 | 1013.2 |
| 20260904171055 | 72 | 0 | 3.0 | 6.0 | 0.00 | 0.00 | 0.00 | 72 | 1013.1 |
| 20260904170558 | 72 | 188 | 0.0 | 5.0 | 0.00 | 0.00 | 0.00 | 72 | 1013.2 |
| 20260904170110 | 71 | 0 | 1.0 | 8.0 | 0.00 | 0.00 | 0.00 | 74 | 1013.1 |
| 20260904165556 | 71 | 212 | 3.0 | 8.0 | 0.00 | 0.00 | 0.00 | 73 | 1013.1 |
| 20260904165055 | 71 | 181 | 3.0 | 7.0 | 0.00 | 0.00 | 0.00 | 73 | 1013.0 |
| 20260904164606 | 71 | 259 | 2.0 | 5.0 | 0.00 | 0.00 | 0.00 | 72 | 1012.9 |
| 20260904164059 | 71 | 180 | 1.0 | 5.0 | 0.00 | 0.00 | 0.00 | 73 | 1012.8 |
| 20260904163556 | 71 | 0 | 1.0 | 5.0 | 0.00 | 0.00 | 0.00 | 73 | 1012.8 |
| 20260904163101 | 71 | 173 | 1.0 | 3.0 | 0.00 | 0.00 | 0.00 | 74 | 1012.8 |
| 20260904162556 | 70 | 0 | 0.0 | 4.0 | 0.00 | 0.00 | 0.00 | 76 | 1012.7 |
| 20260904162055 | 69 | 290 | 0.0 | 4.0 | 0.00 | 0.00 | 0.00 | 80 | 1012.7 |
| 20260904161600 | 68 | 44 | 1.0 | 4.0 | 0.00 | 0.00 | 0.00 | 81 | 1012.8 |
| 20260904161055 | 68 | 0 | 1.0 | 4.0 | 0.00 | 0.00 | 0.00 | 82 | 1012.7 |
| 20260904160555 | 68 | 0 | 0.0 | 2.0 | 0.00 | 0.00 | 0.00 | 82 | 1012.7 |
| 20260904160106 | 67 | 55 | 0.0 | 2.0 | 0.00 | 0.00 | 0.00 | 82 | 1012.7 |
| 20260904155556 | 67 | 0 | 0.0 | 3.0 | 0.00 | 0.00 | 0.00 | 83 | 1012.6 |
| 20260904155056 | 67 | 111 | 0.0 | 4.0 | 0.00 | 0.00 | 0.00 | 82 | 1012.7 |
| 20260904154621 | 68 | 110 | 0.0 | 5.0 | 0.00 | 0.00 | 0.00 | 82 | 1012.6 |
| 20260904154056 | 68 | 101 | 2.0 | 5.0 | 0.00 | 0.00 | 0.00 | 81 | 1012.7 |
| 20260904153556 | 68 | 0 | 1.0 | 5.0 | 0.00 | 0.00 | 0.00 | 81 | 1012.7 |
| 20260904153102 | 68 | 65 | 2.0 | 4.0 | 0.00 | 0.00 | 0.00 | 82 | 1012.7 |
| 20260904152555 | 68 | 58 | 1.0 | 4.0 | 0.00 | 0.00 | 0.00 | 83 | 1012.7 |
| 20260904152057 | 68 | 0 | 0.0 | 0.0 | 0.00 | 0.00 | 0.00 | 83 | 1012.7 |
| 20260904151609 | 68 | 0 | 0.0 | 0.0 | 0.00 | 0.00 | 0.00 | 84 | 1012.5 |
| 20260904151055 | 67 | 0 | 0.0 | 0.0 | 0.00 | 0.00 | 0.00 | 85 | 1012.6 |
| 20260904150555 | 67 | 0 | 0.0 | 0.0 | 0.00 | 0.00 | 0.00 | 86 | 1012.5 |
| 20260904150104 | 66 | 0 | 0.0 | 0.0 | 0.00 | 0.00 | 0.00 | 87 | 1012.5 |
| 20260904145556 | 66 | 0 | 0.0 | 0.0 | 0.00 | 0.00 | 0.00 | 87 | 1012.4 |
| 20260904145056 | 65 | 0 | 0.0 | 0.0 | 0.00 | 0.00 | 0.00 | 88 | 1012.4 |
| 20260904144604 | 65 | 0 | 0.0 | 0.0 | 0.00 | 0.00 | 0.00 | 89 | 1012.4 |
| 20260904144100 | 64 | 0 | 0.0 | 0.0 | 0.00 | 0.00 | 0.00 | 90 | 1012.4 |
| 20260904143558 | 64 | 0 | 0.0 | 0.0 | 0.00 | 0.00 | 0.00 | 90 | 1012.3 |
| 20260904143100 | 63 | 0 | 0.0 | 0.0 | 0.00 | 0.00 | 0.00 | 90 | 1012.2 |
| 20260904142556 | 63 | 0 | 0.0 | 0.0 | 0.00 | 0.00 | 0.00 | 91 | 1012.1 |
| 20260904142055 | 63 | 0 | 0.0 | 0.0 | 0.00 | 0.00 | 0.00 | 91 | 1012.2 |
| 20260904141624 | 63 | 0 | 0.0 | 0.0 | 0.00 | 0.00 | 0.00 | 91 | 1012.2 |
| 20260904141056 | 63 | 0 | 0.0 | 0.0 | 0.00 | 0.00 | 0.00 | 91 | 1012.1 |
| 20260904140555 | 63 | 0 | 0.0 | 0.0 | 0.00 | 0.00 | 0.00 | 91 | 1012.2 |
| 20260904140110 | 62 | 0 | 0.0 | 0.0 | 0.00 | 0.00 | 0.00 | 91 | 1012.1 |
| 20260904135556 | 62 | 0 | 0.0 | 0.0 | 0.00 | 0.00 | 0.00 | 91 | 1012.0 |
| 20260904135057 | 62 | 0 | 0.0 | 0.0 | 0.00 | 0.00 | 0.00 | 91 | 1011.9 |
| 20260904134620 | 62 | 0 | 0.0 | 0.0 | 0.00 | 0.00 | 0.00 | 91 | 1011.9 |
| 20260904134056 | 62 | 0 | 0.0 | 0.0 | 0.00 | 0.00 | 0.00 | 91 | 1011.9 |
| 20260904133556 | 62 | 0 | 0.0 | 0.0 | 0.00 | 0.00 | 0.00 | 91 | 1011.8 |
| 20260904133114 | 62 | 0 | 0.0 | 0.0 | 0.00 | 0.00 | 0.00 | 91 | 1011.7 |
| 20260904132556 | 62 | 0 | 0.0 | 0.0 | 0.00 | 0.00 | 0.00 | 91 | 1011.7 |
| 20260904132056 | 62 | 0 | 0.0 | 0.0 | 0.00 | 0.00 | 0.00 | 91 | 1011.7 |
| 20260904131615 | 63 | 0 | 0.0 | 0.0 | 0.00 | 0.00 | 0.00 | 91 | 1011.7 |
| 20260904131056 | 63 | 0 | 0.0 | 0.0 | 0.00 | 0.00 | 0.00 | 91 | 1011.7 |
| 20260904130555 | 63 | 0 | 0.0 | 0.0 | 0.00 | 0.00 | 0.00 | 91 | 1011.9 |
| 20260904130105 | 63 | 0 | 0.0 | 0.0 | 0.00 | 0.00 | 0.00 | 91 | 1011.7 |
| 20260904125559 | 63 | 0 | 0.0 | 0.0 | 0.00 | 0.00 | 0.00 | 91 | 1011.7 |
| 20260904125056 | 63 | 0 | 0.0 | 0.0 | 0.00 | 0.00 | 0.00 | 91 | 1011.6 |
| 20260904124602 | 63 | 0 | 0.0 | 0.0 | 0.00 | 0.00 | 0.00 | 91 | 1011.6 |
| 20260904124056 | 63 | 0 | 0.0 | 0.0 | 0.00 | 0.00 | 0.00 | 91 | 1011.6 |
| 20260904123556 | 62 | 0 | 0.0 | 0.0 | 0.00 | 0.00 | 0.00 | 91 | 1011.6 |
| 20260904123128 | 63 | 0 | 0.0 | 0.0 | 0.00 | 0.00 | 0.00 | 91 | 1011.6 |
| 20260904122556 | 62 | 0 | 0.0 | 0.0 | 0.00 | 0.00 | 0.00 | 91 | 1011.5 |
| 20260904122056 | 62 | 0 | 0.0 | 0.0 | 0.00 | 0.00 | 0.00 | 91 | 1011.4 |
| 20260904121559 | 62 | 0 | 0.0 | 0.0 | 0.00 | 0.00 | 0.00 | 91 | 1011.4 |
| 20260904121056 | 62 | 0 | 0.0 | 0.0 | 0.00 | 0.00 | 0.00 | 91 | 1011.3 |
| 20260904120555 | 62 | 0 | 0.0 | 0.0 | 0.00 | 0.00 | 0.00 | 91 | 1011.4 |
| 20260904120100 | 63 | 0 | 0.0 | 0.0 | 0.00 | 0.00 | 0.00 | 91 | 1011.4 |
| 20260904115555 | 63 | 0 | 0.0 | 0.0 | 0.00 | 0.00 | 0.00 | 91 | 1011.4 |
| 20260904115055 | 63 | 0 | 0.0 | 0.0 | 0.00 | 0.00 | 0.00 | 91 | 1011.4 |
| 20260904114605 | 63 | 0 | 0.0 | 0.0 | 0.00 | 0.00 | 0.00 | 91 | 1011.4 |
| 20260904114056 | 63 | 0 | 0.0 | 0.0 | 0.00 | 0.00 | 0.00 | 91 | 1011.4 |
| 20260904113556 | 63 | 0 | 0.0 | 0.0 | 0.00 | 0.00 | 0.00 | 91 | 1011.4 |
| 20260904113105 | 62 | 0 | 0.0 | 0.0 | 0.00 | 0.00 | 0.00 | 91 | 1011.4 |
| 20260904112557 | 62 | 0 | 0.0 | 0.0 | 0.00 | 0.00 | 0.00 | 91 | 1011.4 |
| 20260904112056 | 62 | 0 | 0.0 | 0.0 | 0.00 | 0.00 | 0.00 | 91 | 1011.4 |
| 20260904111600 | 62 | 0 | 0.0 | 0.0 | 0.00 | 0.00 | 0.00 | 90 | 1011.4 |
| 20260904111054 | 62 | 0 | 0.0 | 0.0 | 0.00 | 0.00 | 0.00 | 90 | 1011.3 |
| 20260904110555 | 62 | 0 | 0.0 | 0.0 | 0.00 | 0.00 | 0.00 | 91 | 1011.4 |
| 20260904110116 | 62 | 0 | 0.0 | 0.0 | 0.00 | 0.00 | 0.00 | 91 | 1011.5 |
| 20260904105554 | 62 | 0 | 0.0 | 0.0 | 0.00 | 0.00 | 0.00 | 91 | 1011.5 |
| 20260904105052 | 62 | 0 | 0.0 | 0.0 | 0.00 | 0.00 | 0.00 | 91 | 1011.4 |
| 20260904104557 | 62 | 0 | 0.0 | 0.0 | 0.00 | 0.00 | 0.00 | 91 | 1011.4 |
| 20260904104053 | 62 | 0 | 0.0 | 0.0 | 0.00 | 0.00 | 0.00 | 91 | 1011.4 |
| 20260904103551 | 62 | 0 | 0.0 | 0.0 | 0.00 | 0.00 | 0.00 | 91 | 1011.4 |
| 20260904103107 | 62 | 0 | 0.0 | 0.0 | 0.00 | 0.00 | 0.00 | 90 | 1011.4 |
| 20260904102554 | 62 | 0 | 0.0 | 0.0 | 0.00 | 0.00 | 0.00 | 90 | 1011.4 |
| 20260904102050 | 62 | 0 | 0.0 | 0.0 | 0.00 | 0.00 | 0.00 | 90 | 1011.5 |
| 20260904101601 | 62 | 0 | 0.0 | 0.0 | 0.00 | 0.00 | 0.00 | 90 | 1011.3 |
| 20260904101051 | 62 | 0 | 0.0 | 0.0 | 0.00 | 0.00 | 0.00 | 90 | 1011.4 |
| 20260904100551 | 62 | 0 | 0.0 | 0.0 | 0.00 | 0.00 | 0.00 | 90 | 1011.4 |
| 20260904100104 | 62 | 0 | 0.0 | 0.0 | 0.00 | 0.00 | 0.00 | 90 | 1011.4 |
| 20260904095555 | 62 | 0 | 0.0 | 0.0 | 0.00 | 0.00 | 0.00 | 90 | 1011.4 |
| 20260904095052 | 62 | 0 | 0.0 | 0.0 | 0.00 | 0.00 | 0.00 | 90 | 1011.3 |
| 20260904094557 | 62 | 0 | 0.0 | 0.0 | 0.00 | 0.00 | 0.00 | 90 | 1011.4 |
| 20260904094051 | 62 | 0 | 0.0 | 0.0 | 0.00 | 0.00 | 0.00 | 90 | 1011.4 |
| 20260904093556 | 63 | 0 | 0.0 | 0.0 | 0.00 | 0.00 | 0.00 | 90 | 1011.4 |
| 20260904093103 | 62 | 0 | 0.0 | 0.0 | 0.00 | 0.00 | 0.00 | 90 | 1011.4 |
| 20260904092551 | 62 | 0 | 0.0 | 0.0 | 0.00 | 0.00 | 0.00 | 90 | 1011.4 |
| 20260904092051 | 63 | 0 | 0.0 | 0.0 | 0.00 | 0.00 | 0.00 | 90 | 1011.3 |
| 20260904091559 | 63 | 0 | 0.0 | 0.0 | 0.00 | 0.00 | 0.00 | 90 | 1011.3 |
| 20260904091053 | 63 | 0 | 0.0 | 0.0 | 0.00 | 0.00 | 0.00 | 90 | 1011.4 |
| 20260904090550 | 63 | 0 | 0.0 | 0.0 | 0.00 | 0.00 | 0.00 | 90 | 1011.4 |
| 20260904090057 | 63 | 0 | 0.0 | 0.0 | 0.00 | 0.00 | 0.00 | 90 | 1011.4 |
| 20260904085554 | 63 | 0 | 0.0 | 0.0 | 0.00 | 0.00 | 0.00 | 90 | 1011.3 |
| 20260904085057 | 63 | 0 | 0.0 | 0.0 | 0.00 | 0.00 | 0.00 | 89 | 1011.4 |
| 20260904084606 | 63 | 0 | 0.0 | 0.0 | 0.00 | 0.00 | 0.00 | 89 | 1011.4 |
| 20260904084051 | 63 | 0 | 0.0 | 0.0 | 0.00 | 0.00 | 0.00 | 89 | 1011.5 |
| 20260904083551 | 63 | 0 | 0.0 | 0.0 | 0.00 | 0.00 | 0.00 | 90 | 1011.6 |
| 20260904083101 | 63 | 0 | 0.0 | 0.0 | 0.00 | 0.00 | 0.00 | 90 | 1011.6 |
| 20260904082553 | 63 | 0 | 0.0 | 0.0 | 0.00 | 0.00 | 0.00 | 89 | 1011.5 |
| 20260904082051 | 63 | 0 | 0.0 | 0.0 | 0.00 | 0.00 | 0.00 | 89 | 1011.6 |
| 20260904081558 | 63 | 0 | 0.0 | 0.0 | 0.00 | 0.00 | 0.00 | 89 | 1011.5 |
| 20260904081050 | 63 | 0 | 0.0 | 1.0 | 0.00 | 0.00 | 0.00 | 89 | 1011.6 |
| 20260904080550 | 63 | 0 | 0.0 | 2.0 | 0.00 | 0.00 | 0.00 | 89 | 1011.6 |
| 20260904080117 | 63 | 337 | 0.0 | 3.0 | 0.00 | 0.00 | 0.00 | 89 | 1011.7 |
| 20260904075553 | 63 | 324 | 0.0 | 3.0 | 0.00 | 0.00 | 0.00 | 89 | 1011.7 |
| 20260904075051 | 63 | 0 | 1.0 | 3.0 | 0.00 | 0.00 | 0.00 | 88 | 1011.7 |
| 20260904074604 | 63 | 0 | 0.0 | 0.0 | 0.00 | 0.00 | 0.00 | 88 | 1011.8 |
| 20260904074051 | 63 | 0 | 0.0 | 0.0 | 0.00 | 0.00 | 0.00 | 88 | 1011.8 |
| 20260904073554 | 63 | 0 | 0.0 | 0.0 | 0.00 | 0.00 | 0.00 | 88 | 1011.7 |
| 20260904073101 | 63 | 0 | 0.0 | 0.0 | 0.00 | 0.00 | 0.00 | 88 | 1011.7 |
| 20260904072550 | 63 | 0 | 0.0 | 0.0 | 0.00 | 0.00 | 0.00 | 88 | 1011.6 |
| 20260904072050 | 64 | 0 | 0.0 | 0.0 | 0.00 | 0.00 | 0.00 | 87 | 1011.5 |
| 20260904071600 | 64 | 0 | 0.0 | 0.0 | 0.00 | 0.00 | 0.00 | 88 | 1011.6 |
| 20260904071057 | 64 | 0 | 0.0 | 0.0 | 0.00 | 0.00 | 0.00 | 88 | 1011.5 |
| 20260904070555 | 64 | 0 | 0.0 | 0.0 | 0.00 | 0.00 | 0.00 | 88 | 1011.5 |
| 20260904065551 | 64 | 0 | 0.0 | 0.0 | 0.00 | 0.00 | 0.00 | 87 | 1011.4 |
| 20260904065051 | 64 | 0 | 0.0 | 0.0 | 0.00 | 0.00 | 0.00 | 87 | 1011.5 |
| 20260904064621 | 64 | 0 | 0.0 | 0.0 | 0.00 | 0.00 | 0.00 | 88 | 1011.5 |
| 20260904064051 | 64 | 0 | 0.0 | 0.0 | 0.00 | 0.00 | 0.00 | 87 | 1011.4 |
| 20260904063551 | 64 | 0 | 0.0 | 0.0 | 0.00 | 0.00 | 0.00 | 87 | 1011.4 |
| 20260904063108 | 64 | 0 | 0.0 | 0.0 | 0.00 | 0.00 | 0.00 | 87 | 1011.3 |
| 20260904062554 | 64 | 0 | 0.0 | 0.0 | 0.00 | 0.00 | 0.00 | 87 | 1011.3 |
| 20260904062050 | 64 | 0 | 0.0 | 0.0 | 0.00 | 0.00 | 0.00 | 87 | 1011.3 |
| 20260904061557 | 64 | 0 | 0.0 | 0.0 | 0.00 | 0.00 | 0.00 | 87 | 1011.3 |
| 20260904061058 | 64 | 0 | 0.0 | 0.0 | 0.00 | 0.00 | 0.00 | 87 | 1011.3 |
| 20260904060555 | 64 | 0 | 0.0 | 0.0 | 0.00 | 0.00 | 0.00 | 87 | 1011.2 |
| 20260904060110 | 64 | 0 | 0.0 | 1.0 | 0.00 | 0.00 | 0.00 | 87 | 1011.2 |
| 20260904055551 | 65 | 0 | 0.0 | 1.0 | 0.00 | 0.00 | 0.00 | 87 | 1011.2 |
| 20260904055051 | 65 | 0 | 0.0 | 1.0 | 0.00 | 0.00 | 0.00 | 87 | 1011.2 |
| 20260904054604 | 65 | 0 | 0.0 | 0.0 | 0.00 | 0.00 | 0.00 | 87 | 1011.3 |
| 20260904054054 | 65 | 0 | 0.0 | 0.0 | 0.00 | 0.00 | 0.00 | 87 | 1011.2 |
| 20260904053551 | 65 | 0 | 0.0 | 0.0 | 0.00 | 0.00 | 0.00 | 87 | 1011.3 |
| 20260904053105 | 65 | 0 | 0.0 | 2.0 | 0.00 | 0.00 | 0.00 | 87 | 1011.2 |
| 20260904052553 | 65 | 0 | 0.0 | 2.0 | 0.00 | 0.00 | 0.00 | 86 | 1011.3 |
| 20260904052052 | 65 | 19 | 0.0 | 2.0 | 0.00 | 0.00 | 0.00 | 86 | 1011.4 |
| 20260904051558 | 65 | 0 | 0.0 | 2.0 | 0.00 | 0.00 | 0.00 | 86 | 1011.4 |
| 20260904051052 | 65 | 24 | 0.0 | 2.0 | 0.00 | 0.00 | 0.00 | 86 | 1011.4 |
| 20260904050551 | 65 | 0 | 0.0 | 2.0 | 0.00 | 0.00 | 0.00 | 86 | 1011.4 |
| 20260904050148 | 65 | 0 | 0.0 | 2.0 | 0.00 | 0.00 | 0.00 | 86 | 1011.3 |
| 20260904045556 | 66 | 0 | 0.0 | 2.0 | 0.00 | 0.00 | 0.00 | 85 | 1011.3 |
| 20260904045057 | 66 | 0 | 0.0 | 3.0 | 0.00 | 0.00 | 0.00 | 85 | 1011.3 |
| 20260904044605 | 66 | 0 | 0.0 | 3.0 | 0.00 | 0.00 | 0.00 | 85 | 1011.4 |
| 20260904044055 | 66 | 352 | 0.0 | 0.0 | 0.00 | 0.00 | 0.00 | 85 | 1011.3 |
| 20260904043556 | 66 | 0 | 0.0 | 0.0 | 0.00 | 0.00 | 0.00 | 84 | 1011.2 |
| 20260904043108 | 66 | 0 | 0.0 | 0.0 | 0.00 | 0.00 | 0.00 | 84 | 1011.0 |
| 20260904042556 | 66 | 0 | 0.0 | 2.0 | 0.00 | 0.00 | 0.00 | 84 | 1011.0 |
| 20260904042058 | 66 | 0 | 0.0 | 2.0 | 0.00 | 0.00 | 0.00 | 84 | 1011.1 |
| 20260904041609 | 67 | 0 | 0.0 | 2.0 | 0.00 | 0.00 | 0.00 | 84 | 1011.1 |
| 20260904041055 | 67 | 0 | 0.0 | 3.0 | 0.00 | 0.00 | 0.00 | 83 | 1011.0 |
| 20260904040555 | 67 | 0 | 0.0 | 3.0 | 0.00 | 0.00 | 0.00 | 83 | 1010.9 |
| 20260904040110 | 67 | 0 | 0.0 | 3.0 | 0.00 | 0.00 | 0.00 | 83 | 1011.1 |
| 20260904035557 | 67 | 0 | 0.0 | 2.0 | 0.00 | 0.00 | 0.00 | 83 | 1011.1 |
| 20260904035056 | 67 | 0 | 0.0 | 4.0 | 0.00 | 0.00 | 0.00 | 83 | 1011.0 |
| 20260904034614 | 67 | 268 | 0.0 | 4.0 | 0.00 | 0.00 | 0.00 | 83 | 1011.0 |
| 20260904034057 | 67 | 270 | 0.0 | 4.0 | 0.00 | 0.00 | 0.00 | 83 | 1010.9 |
| 20260904033555 | 67 | 203 | 0.0 | 4.0 | 0.00 | 0.00 | 0.00 | 83 | 1010.9 |
| 20260904033100 | 67 | 292 | 0.0 | 4.0 | 0.00 | 0.00 | 0.00 | 83 | 1010.8 |
| 20260904032555 | 67 | 180 | 2.0 | 4.0 | 0.00 | 0.00 | 0.00 | 83 | 1010.8 |
| 20260904032056 | 67 | 205 | 1.0 | 6.0 | 0.00 | 0.00 | 0.00 | 83 | 1010.8 |
| 20260904031604 | 67 | 0 | 1.0 | 6.0 | 0.00 | 0.00 | 0.00 | 83 | 1010.8 |
| 20260904031055 | 67 | 0 | 1.0 | 6.0 | 0.00 | 0.00 | 0.00 | 82 | 1010.8 |
| 20260904030555 | 67 | 198 | 1.0 | 5.0 | 0.00 | 0.00 | 0.00 | 82 | 1010.8 |
| 20260904030107 | 67 | 217 | 1.0 | 6.0 | 0.00 | 0.00 | 0.00 | 83 | 1010.7 |
| 20260904025556 | 67 | 263 | 2.0 | 6.0 | 0.00 | 0.00 | 0.00 | 83 | 1010.7 |
| 20260904025056 | 67 | 0 | 2.0 | 8.0 | 0.00 | 0.00 | 0.00 | 83 | 1010.6 |
| 20260904024603 | 67 | 244 | 0.0 | 11.0 | 0.00 | 0.00 | 0.00 | 83 | 1010.6 |
| 20260904024055 | 67 | 163 | 4.0 | 11.0 | 0.00 | 0.00 | 0.00 | 82 | 1010.7 |
| 20260904023555 | 67 | 185 | 3.0 | 7.0 | 0.00 | 0.00 | 0.00 | 82 | 1010.6 |
| 20260904023058 | 68 | 205 | 2.0 | 8.0 | 0.00 | 0.00 | 0.00 | 82 | 1010.7 |
| 20260904022556 | 68 | 210 | 3.0 | 10.0 | 0.00 | 0.00 | 0.00 | 82 | 1010.7 |
| 20260904022057 | 68 | 0 | 5.0 | 10.0 | 0.00 | 0.00 | 0.00 | 82 | 1010.6 |
| 20260904021558 | 68 | 290 | 5.0 | 10.0 | 0.00 | 0.00 | 0.00 | 82 | 1010.5 |
| 20260904021056 | 68 | 198 | 2.0 | 11.0 | 0.00 | 0.00 | 0.00 | 81 | 1010.6 |
| 20260904020556 | 68 | 218 | 5.0 | 11.0 | 0.00 | 0.00 | 0.00 | 80 | 1010.6 |
| 20260904015551 | 69 | 201 | 2.0 | 10.0 | 0.00 | 0.00 | 0.00 | 81 | 1010.6 |
| 20260904015052 | 69 | 254 | 4.0 | 10.0 | 0.00 | 0.00 | 0.00 | 81 | 1010.6 |
| 20260904014628 | 70 | 257 | 4.0 | 11.0 | 0.00 | 0.00 | 0.00 | 80 | 1010.7 |
| 20260904014052 | 70 | 244 | 5.0 | 11.0 | 0.00 | 0.00 | 0.00 | 79 | 1010.6 |
| 20260904013551 | 70 | 284 | 3.0 | 11.0 | 0.00 | 0.00 | 0.00 | 79 | 1010.6 |
| 20260904013058 | 70 | 244 | 4.0 | 11.0 | 0.00 | 0.00 | 0.00 | 78 | 1010.5 |
| 20260904012553 | 70 | 254 | 7.0 | 12.0 | 0.00 | 0.00 | 0.00 | 78 | 1010.6 |
| 20260904012055 | 71 | 222 | 5.0 | 12.0 | 0.00 | 0.00 | 0.00 | 78 | 1010.6 |
| 20260904011608 | 71 | 277 | 5.0 | 11.0 | 0.00 | 0.00 | 0.00 | 75 | 1010.6 |
| 20260904011054 | 71 | 229 | 2.0 | 9.0 | 0.00 | 0.00 | 0.00 | 75 | 1010.5 |
| 20260904010554 | 71 | 219 | 3.0 | 10.0 | 0.00 | 0.00 | 0.00 | 74 | 1010.5 |
| 20260904010106 | 71 | 232 | 4.0 | 11.0 | 0.00 | 0.00 | 0.00 | 75 | 1010.6 |
| 20260904005554 | 71 | 236 | 5.0 | 14.0 | 0.00 | 0.00 | 0.00 | 76 | 1010.6 |
| 20260904005054 | 72 | 288 | 7.0 | 14.0 | 0.00 | 0.00 | 0.00 | 75 | 1010.6 |
| 20260904004605 | 72 | 187 | 6.0 | 14.0 | 0.00 | 0.00 | 0.00 | 76 | 1010.6 |
| 20260904004054 | 72 | 280 | 7.0 | 14.0 | 0.00 | 0.00 | 0.00 | 75 | 1010.6 |
| 20260904003555 | 72 | 271 | 4.0 | 14.0 | 0.00 | 0.00 | 0.00 | 74 | 1010.7 |
| 20260904003102 | 72 | 196 | 4.0 | 14.0 | 0.00 | 0.00 | 0.00 | 74 | 1010.6 |
| 20260904002556 | 73 | 228 | 2.0 | 11.0 | 0.00 | 0.00 | 0.00 | 73 | 1010.7 |
| 20260904002051 | 73 | 271 | 5.0 | 12.0 | 0.00 | 0.00 | 0.00 | 72 | 1010.7 |
| 20260904001558 | 73 | 258 | 3.0 | 13.0 | 0.00 | 0.00 | 0.00 | 71 | 1010.8 |
| 20260904001054 | 73 | 244 | 6.0 | 13.0 | 0.00 | 0.00 | 0.00 | 73 | 1010.9 |
| 20260904000554 | 73 | 0 | 7.0 | 12.0 | 0.00 | 0.00 | 0.00 | 71 | 1010.8 |
| 20260904000106 | 73 | 171 | 5.0 | 13.0 | 0.00 | 0.00 | 0.00 | 71 | 1010.8 |
| 20260903235555 | 73 | 172 | 4.0 | 14.0 | 0.00 | 0.00 | 0.00 | 73 | 1010.9 |
| 20260903235051 | 73 | 223 | 5.0 | 14.0 | 0.00 | 0.00 | 0.00 | 74 | 1010.9 |
| 20260903234603 | 73 | 156 | 4.0 | 11.0 | 0.00 | 0.00 | 0.00 | 73 | 1010.9 |
| 20260903234051 | 73 | 232 | 3.0 | 12.0 | 0.00 | 0.00 | 0.00 | 74 | 1010.9 |
| 20260903233550 | 73 | 212 | 6.0 | 14.0 | 0.00 | 0.00 | 0.00 | 74 | 1011.0 |
| 20260903233059 | 73 | 197 | 6.0 | 14.0 | 0.00 | 0.00 | 0.00 | 73 | 1011.1 |
| 20260903232554 | 73 | 165 | 5.0 | 12.0 | 0.00 | 0.00 | 0.00 | 72 | 1011.1 |
| 20260903232052 | 73 | 300 | 5.0 | 11.0 | 0.00 | 0.00 | 0.00 | 73 | 1011.1 |
| 20260903231609 | 73 | 182 | 5.0 | 11.0 | 0.00 | 0.00 | 0.00 | 72 | 1011.2 |
| 20260903231054 | 73 | 215 | 5.0 | 14.0 | 0.00 | 0.00 | 0.00 | 73 | 1011.2 |
| 20260903230600 | 73 | 192 | 3.0 | 14.0 | 0.00 | 0.00 | 0.00 | 73 | 1011.1 |
| 20260903230111 | 74 | 284 | 5.0 | 14.0 | 0.00 | 0.00 | 0.00 | 72 | 1011.3 |
| 20260903225619 | 73 | 219 | 4.0 | 15.0 | 0.00 | 0.00 | 0.00 | 73 | 1011.3 |
| 20260903225055 | 73 | 163 | 7.0 | 15.0 | 0.00 | 0.00 | 0.00 | 72 | 1011.4 |
| 20260903224601 | 74 | 284 | 7.0 | 13.0 | 0.00 | 0.00 | 0.00 | 73 | 1011.4 |
| 20260903224051 | 74 | 200 | 3.0 | 11.0 | 0.00 | 0.00 | 0.00 | 71 | 1011.4 |
| 20260903223557 | 74 | 294 | 3.0 | 13.0 | 0.00 | 0.00 | 0.00 | 72 | 1011.5 |
| 20260903223112 | 74 | 200 | 5.0 | 13.0 | 0.00 | 0.00 | 0.00 | 73 | 1011.6 |
| 20260903222550 | 74 | 279 | 7.0 | 12.0 | 0.00 | 0.00 | 0.00 | 72 | 1011.7 |
| 20260903222056 | 74 | 193 | 5.0 | 11.0 | 0.00 | 0.00 | 0.00 | 71 | 1011.7 |
| 20260903221556 | 74 | 192 | 5.0 | 11.0 | 0.00 | 0.00 | 0.00 | 72 | 1011.8 |
| 20260903221057 | 74 | 287 | 4.0 | 12.0 | 0.00 | 0.00 | 0.00 | 72 | 1011.9 |
| 20260903220554 | 74 | 249 | 5.0 | 12.0 | 0.00 | 0.00 | 0.00 | 71 | 1011.9 |
| 20260903220111 | 74 | 191 | 6.0 | 15.0 | 0.00 | 0.00 | 0.00 | 72 | 1011.9 |